Find Starlink 34275

NORAD ID: 64413 Int'l Des: 2025-129 Owner: SPXS Country: US Constellation: starlink operational
LEOCIRCULAR

当前视图

正在加载3D地球...

关于 Starlink 34275

正在加载描述...

即将过境

Passes for default location (London). Set your location on the main map for personalized predictions.

高度历史

Loading altitude history...

两行轨道根数

1 64413U 25129B 26149.51617311 .00001745 00000-0 15396-3 0 9998
2 64413 70.0013 230.6886 0003558 268.4551 91.6201 14.98335215 53396
Epoch: May 29, 2026 • Age: 18 hours

当前状态

高度 575.5 km
速度 7.57 km/s
星下点 24.41°N, 51.05°E
发射日期 Jun 17, 2025
运行时间 0.9 years
类型 internet

技术详情

分类 Payload
质量 575.00 kg
干质量 530.00 kg
总质量 575.00 kg
长度 0.30 m
直径 4.10 m
跨度 29.00 m
形状 Box + pan
制造商 SPXS
平台类型 Starlink V2MO
阶段状态 In Orbit
所有者/国家 SPXS/US

Most Searched